Regional Weather Roundup
Issued by NWS

Current Version | Previous Version | Text Only | Print | Product List | Glossary On
Versions: 1 2 3 4 5 6 7 8 9 10 11 12 13 14 15 16 17 18 19 20 21 22 23 24 25 26 27 28 29 30 31 32 33 34 35 36 37 38 39 40 41 42 43 44 45 46 47 48 49 50
000
ASUS43 KDTX 181210
RWRMI
MICHIGAN HOURLY REGIONAL WEATHER ROUNDUP
NATIONAL WEATHER SERVICE DETROIT/PONTIAC MI
800 AM EDT SUN APR 18 2021

NOTE: "FAIR" INDICATES FEW OR NO CLOUDS BELOW 12,000 FEET WITH NO
SIGNIFICANT WEATHER AND/OR OBSTRUCTION TO VISIBILITY.

MIZ047>049-052>055-059>063-066>070-074>076-081>083-181300-
SOUTHEAST LOWER MICHIGAN

CITY           SKY/WX    TMP DP  RH WIND       PRES   REMARKS
ADRIAN         SUNNY     42  32  67 N9        29.91R
6HR MIN TEMP:  38; 6HR MAX TEMP:  47;

ALMA           SUNNY     35  32  89 CALM      29.93S
6HR MIN TEMP:  29; 6HR MAX TEMP:  40;

ANN ARBOR      CLOUDY    39  36  89 NW3       29.90
BAD AXE        MOSUNNY   36  36 100 N5        29.89R WCI  32
6HR MIN TEMP:  32; 6HR MAX TEMP:  43;

CARO           SUNNY     42  26  53 NW5       29.90R
DETROIT CITY   MOSUNNY   45  38  76 CALM      29.89R
6HR MIN TEMP:  44; 6HR MAX TEMP:  46;

DETROIT        PTSUNNY   44  37  76 NW5       29.90R
6HR MIN TEMP:  42; 6HR MAX TEMP:  45;

FLINT          SUNNY     41  31  67 NW6       29.92R
6HR MIN TEMP:  36; 6HR MAX TEMP:  48;

GROSSE ILE     PTSUNNY   44  38  81 NW5       29.89R
6HR MIN TEMP:  42; 6HR MAX TEMP:  47;

HILLSDALE      SUNNY     36  29  74 NW6       29.91R WCI  31
6HR MIN TEMP:  33; 6HR MAX TEMP:  42;

HOWELL         SUNNY     40  32  71 NW3       29.91R
6HR MIN TEMP:  38; 6HR MAX TEMP:  43;


CITY           SKY/WX    TMP DP  RH WIND       PRES   REMARKS
JACKSON        SUNNY     37  30  75 SW3       29.92R
6HR MIN TEMP:  33; 6HR MAX TEMP:  43;

LAMBERTVILLE   PTSUNNY   42  35  78 CALM      29.90R
6HR MIN TEMP:  39; 6HR MAX TEMP:  47;

LANSING        SUNNY     39  31  72 NW3       29.93R
6HR MIN TEMP:  34; 6HR MAX TEMP:  41;

LAPEER         MOSUNNY   40  39  94 NW3       29.90R
6HR MIN TEMP:  36; 6HR MAX TEMP:  45;

MASON          SUNNY     38  32  77 CALM      29.92R
6HR MIN TEMP:  35; 6HR MAX TEMP:  41;

MONROE         CLOUDY    43  41  93 CALM      29.89R
6HR MIN TEMP:  38; 6HR MAX TEMP:  45;

MT. CLEMENS    PTSUNNY   44  44 100 W6        29.87R
6HR MIN TEMP:  42; 6HR MAX TEMP:  46;

PONTIAC        MOSUNNY   43  38  82 NW10      29.88R
6HR MIN TEMP:  39; 6HR MAX TEMP:  47;

PORT HOPE        N/A     42  33  70 NW6       29.87S
6HR MIN TEMP:  36; 6HR MAX TEMP:  44;

PORT HURON     PTSUNNY   41  36  81 CALM      29.88S FOG
TRI CITIES     SUNNY     39  24  55 NW8       29.92R WCI  33
6HR MIN TEMP:  36; 6HR MAX TEMP:  43;

MIDLAND        SUNNY     37  25  62 NW5       29.92R WCI  33
6HR MIN TEMP:  31; 6HR MAX TEMP:  40;

TROY           MOSUNNY   43  40  89 CALM      29.90R
SAGINAW HB     SUNNY     38  29  67 CALM      29.92R
6HR MIN TEMP:  36; 6HR MAX TEMP:  45;

$$
MIZ043>046-050>051-056>058-064>065-071>073-077>080-181300-
SOUTHWEST LOWER MICHIGAN

CITY           SKY/WX    TMP DP  RH WIND       PRES   REMARKS
BATTLE CREEK   SUNNY     36  32  85 CALM      29.93R
6HR MIN TEMP:  32; 6HR MAX TEMP:  37;

BENTON HARBOR  SUNNY     33  30  88 CALM      29.96R FOG
6HR MIN TEMP:  29; 6HR MAX TEMP:  37;

BIG RAPIDS     SUNNY     31  25  79 CALM      29.93R
6HR MIN TEMP:  28; 6HR MAX TEMP:  37;

COLDWATER      SUNNY     34  31  88 CALM      29.93R
6HR MIN TEMP:  31; 6HR MAX TEMP:  37;

FREMONT        FAIR     N/A N/A N/A CALM      29.94R
HOLLAND        SUNNY     33  30  88 CALM      29.96R
6HR MIN TEMP:  31; 6HR MAX TEMP:  38;

GRAND RAPIDS   PTSUNNY   36  32  85 CALM      29.94R
6HR MIN TEMP:  31; 6HR MAX TEMP:  38;

IONIA          FAIR      37  28  69 CALM      29.93R
6HR MIN TEMP:  35; 6HR MAX TEMP:  41;

KALAMAZOO      SUNNY     34  31  88 CALM      29.95R
6HR MIN TEMP:  32; 6HR MAX TEMP:  36;

LUDINGTON      SUNNY     29  27  93 CALM      29.94S
6HR MIN TEMP:  24; 6HR MAX TEMP:  32;

MARSHALL       SUNNY     34  31  87 CALM      29.93R
6HR MIN TEMP:  31; 6HR MAX TEMP:  37;

MOUNT PLEASANT SUNNY     38  23  55 W3        29.92R
6HR MIN TEMP:  34; 6HR MAX TEMP:  42;

MUSKEGON       MOSUNNY   34  31  88 CALM      29.96R
6HR MIN TEMP:  28; 6HR MAX TEMP:  39;

SOUTH HAVEN    SUNNY     32  31  97 CALM      29.96R
$$
MIZ016>042-181300-
NORTHERN LOWER MICHIGAN

CITY           SKY/WX    TMP DP  RH WIND       PRES   REMARKS
ALPENA         SUNNY     33  30  88 W6        29.89R WCI  28
6HR MIN TEMP:  31; 6HR MAX TEMP:  34;

BEAVER ISLAND  SUNNY     36  28  75 NW3       29.93S
BELLAIRE       SUNNY     31  28  91 CALM      29.94R
6HR MIN TEMP:  27; 6HR MAX TEMP:  35;

CADILLAC       SUNNY     32  25  76 CALM      29.90S
6HR MIN TEMP:  25; 6HR MAX TEMP:  32;

CHARLEVOIX     SUNNY     37  32  82 NW3       29.93R
6HR MIN TEMP:  31; 6HR MAX TEMP:  37;

FRANKFORT      SUNNY     28  25  89 CALM      29.94R
GAYLORD        SUNNY     34  28  79 W6        29.89R WCI  29
6HR MIN TEMP:  32; 6HR MAX TEMP:  36;

GRAYLING       SUNNY     30  28  91 NW5       29.90R WCI  25
6HR MIN TEMP:  25; 6HR MAX TEMP:  30;

HARBOR SPRINGS SUNNY     33  30  90 CALM      29.91S
HOUGHTON LAKE  SUNNY     32  25  75 NW8       29.91R WCI  25
6HR MIN TEMP:  29; 6HR MAX TEMP:  35;

MANISTEE       SUNNY     29  28  96 CALM      29.94S
OSCODA         SUNNY     33  27  77 NW8       29.89S WCI  26
6HR MIN TEMP:  29; 6HR MAX TEMP:  35;

PELLSTON       SUNNY     34  30  85 NW8       29.91R WCI  27
6HR MIN TEMP:  28; 6HR MAX TEMP:  34;

ROGERS CITY    SUNNY     32  31  94 W7        29.90R WCI  26
TRAVERSE CITY  MOSUNNY   31  27  85 CALM      29.93R
6HR MIN TEMP:  27; 6HR MAX TEMP:  36;

$$
MIZ007>008-015-181300-
EASTERN UPPER MICHIGAN

CITY           SKY/WX    TMP DP  RH WIND       PRES   REMARKS
KINROSS        MOSUNNY   34  33  96 NW12      29.89R WCI  25
6HR MIN TEMP:  30; 6HR MAX TEMP:  34;

MACKINAC ISLAN SUNNY     34  33  97 NW6       29.90R WCI  29
6HR MIN TEMP:  32; 6HR MAX TEMP:  34;

NEWBERRY       SUNNY     34  28  81 W3        29.91R
6HR MIN TEMP:  30; 6HR MAX TEMP:  34;

S. S. MARIE    SUNNY     35  31  85 W6        29.88R WCI  30
6HR MIN TEMP:  34; 6HR MAX TEMP:  35;

MUNISING         N/A     30  19  63 S8        29.91R WCI  22
6HR MIN TEMP:  25; 6HR MAX TEMP:  30;

$$
MIZ004>006-011>014-085-181300-
CENTRAL UPPER MICHIGAN

CITY           SKY/WX    TMP DP  RH WIND       PRES   REMARKS
MANISTIQUE     SUNNY     30  25  82 CALM      29.92R
6HR MIN TEMP:  24; 6HR MAX TEMP:  30;

ESCANABA       SUNNY     30  28  92 CALM      29.94R
6HR MIN TEMP:  24; 6HR MAX TEMP:  33;

MENOMINEE      CLEAR     28  28 100 CALM      29.95R
6HR MIN TEMP:  26; 6HR MAX TEMP:  32;

SAWYER-GWINN   CLEAR     25  19  80 CALM      29.89S
$$
MIZ001>003-009>011-084-181300-
WESTERN UPPER MICHIGAN

CITY           SKY/WX    TMP DP  RH WIND       PRES   REMARKS
IRON MOUNTAIN  CLEAR     27  17  66 CALM      29.90R
6HR MIN TEMP:  23; 6HR MAX TEMP:  30;

HOUGHTON       CLEAR     32  21  64 W3        29.86R
6HR MIN TEMP:  27; 6HR MAX TEMP:  35;

COPPER HARBOR    N/A     41  17  38 SW8       29.86S
6HR MIN TEMP:  32; 6HR MAX TEMP:  41;

IRONWOOD       CLEAR     29  25  85 CALM      29.88S
6HR MIN TEMP:  25; 6HR MAX TEMP:  29;

$$

ABBREVIATIONS USED IN REMARKS
   TC - TEMPERATURE IN CELSIUS
  WCI - WIND CHILL INDEX
   HX - HEAT INDEX
  VSB - VISIBILITY




USA.gov is the U.S. government's official web portal to all federal, state and local government web resources and services.